^^
Station Historical Data
Daily Summary for November 14, 2021 Units:  English    Metric   Both
Daily Weekly Monthly Yearly
  High: Low: Average:
Temperature: 40.1 °F 34.4 °F 36.9 °F
Dew Point: 34.4 °F 30.6 °F 32.7 °F
Humidity: 92% 69% 85%
Wind Speed: 9mph 0mph 3.6mph
Wind Gust: 14mph - -
Wind- - SSE
Pressure: 29.81 in 29.60 in -
Precipitation: 0.01 in    
 
 
Tabular Data for November 14, 2021
Time Temperature Dew Point Pressure Wind Wind Speed Wind Gust Humidity Rainfall Rate (Hourly) solar
00:00 40 °F 30.6 °F 29.81 in West 8 mph 14 mph 69% 0.00 in 0 W/m2
00:05 40.1 °F 30.7 °F 29.81 in West 9 mph 14 mph 69% 0.00 in 0 W/m2
00:10 40.1 °F 30.7 °F 29.81 in West 9 mph 9 mph 69% 0.00 in 0 W/m2
00:15 40.1 °F 30.7 °F 29.81 in WNW 8 mph 9 mph 69% 0.00 in 0 W/m2
00:20 40.1 °F 31.1 °F 29.81 in NW 7 mph 7 mph 70% 0.00 in 0 W/m2
00:25 40 °F 31 °F 29.81 in WSW 6 mph 13 mph 70% 0.00 in 0 W/m2
00:30 40 °F 31 °F 29.81 in South 6 mph 6 mph 70% 0.00 in 0 W/m2
00:35 40 °F 31 °F 29.81 in WSW 7 mph 7 mph 70% 0.00 in 0 W/m2
00:40 39.9 °F 30.9 °F 29.81 in West 6 mph 8 mph 70% 0.00 in 0 W/m2
00:45 39.9 °F 30.9 °F 29.81 in WSW 6 mph 8 mph 70% 0.00 in 0 W/m2
00:50 39.9 °F 31.3 °F 29.81 in WNW 7 mph 11 mph 71% 0.00 in 0 W/m2
00:55 39.9 °F 31.6 °F 29.81 in NW 7 mph 11 mph 72% 0.00 in 0 W/m2
01:00 39.9 °F 31.6 °F 29.80 in WSW 7 mph 8 mph 72% 0.00 in 0 W/m2
01:05 39.8 °F 31.2 °F 29.80 in WSW 6 mph 8 mph 71% 0.00 in 0 W/m2
01:10 39.8 °F 31.5 °F 29.80 in WSW 7 mph 8 mph 72% 0.00 in 0 W/m2
01:15 39.8 °F 31.2 °F 29.80 in SW 7 mph 8 mph 71% 0.00 in 0 W/m2
01:20 39.8 °F 31.5 °F 29.79 in NW 7 mph 7 mph 72% 0.00 in 0 W/m2
01:25 39.8 °F 31.2 °F 29.79 in WSW 6 mph 7 mph 71% 0.00 in 0 W/m2
01:30 39.7 °F 31.1 °F 29.79 in West 6 mph 6 mph 71% 0.00 in 0 W/m2
01:35 39.8 °F 31.2 °F 29.79 in West 6 mph 9 mph 71% 0.00 in 0 W/m2
01:40 39.7 °F 31.1 °F 29.79 in WSW 6 mph 6 mph 71% 0.00 in 0 W/m2
01:45 39.6 °F 31 °F 29.78 in WSW 7 mph 7 mph 71% 0.00 in 0 W/m2
01:50 39.6 °F 31 °F 29.78 in WSW 6 mph 6 mph 71% 0.00 in 0 W/m2
01:55 39.6 °F 31 °F 29.78 in WNW 6 mph 6 mph 71% 0.00 in 0 W/m2
02:00 39.5 °F 30.9 °F 29.78 in West 6 mph 6 mph 71% 0.00 in 0 W/m2
02:05 39.5 °F 31.2 °F 29.78 in WSW 6 mph 9 mph 72% 0.00 in 0 W/m2
02:10 39.4 °F 31.8 °F 29.78 in SW 6 mph 8 mph 74% 0.00 in 0 W/m2
02:15 39.5 °F 32.2 °F 29.78 in SW 6 mph 8 mph 75% 0.00 in 0 W/m2
02:20 39.3 °F 32.7 °F 29.77 in SW 7 mph 13 mph 77% 0.00 in 0 W/m2
02:25 39.2 °F 32.9 °F 29.77 in WSW 7 mph 13 mph 78% 0.00 in 0 W/m2
02:30 39 °F 33 °F 29.77 in SW 7 mph 8 mph 79% 0.00 in 0 W/m2
02:35 38.8 °F 32.5 °F 29.76 in NW 7 mph 8 mph 78% 0.00 in 0 W/m2
02:40 38.7 °F 32.7 °F 29.77 in WSW 6 mph 6 mph 79% 0.00 in 0 W/m2
02:45 38.6 °F 33 °F 29.77 in SW 5 mph 7 mph 80% 0.00 in 0 W/m2
02:50 38.5 °F 32.9 °F 29.76 in SW 5 mph 7 mph 80% 0.00 in 0 W/m2
02:55 38.5 °F 32.9 °F 29.77 in SSW 5 mph 7 mph 80% 0.00 in 0 W/m2
03:00 38.5 °F 32.6 °F 29.77 in WSW 6 mph 6 mph 79% 0.00 in 0 W/m2
03:05 38.6 °F 32.6 °F 29.78 in SSW 7 mph 7 mph 79% 0.00 in 0 W/m2
03:10 38.7 °F 32.7 °F 29.77 in SW 6 mph 6 mph 79% 0.00 in 0 W/m2
03:15 38.9 °F 32.9 °F 29.77 in SW 7 mph 7 mph 79% 0.00 in 0 W/m2
03:20 39 °F 33 °F 29.77 in WSW 7 mph 8 mph 79% 0.00 in 0 W/m2
03:25 39 °F 33 °F 29.78 in WSW 7 mph 8 mph 79% 0.00 in 0 W/m2
03:30 39.1 °F 33.8 °F 29.78 in WSW 7 mph 8 mph 81% 0.00 in 0 W/m2
03:35 39 °F 33.4 °F 29.78 in SW 7 mph 13 mph 80% 0.00 in 0 W/m2
03:40 38.9 °F 33.3 °F 29.78 in NW 6 mph 6 mph 80% 0.00 in 0 W/m2
03:45 38.9 °F 32.9 °F 29.78 in WSW 6 mph 6 mph 79% 0.00 in 0 W/m2
03:50 38.8 °F 32.8 °F 29.77 in SW 6 mph 6 mph 79% 0.00 in 0 W/m2
03:55 38.9 °F 32.9 °F 29.77 in WSW 7 mph 9 mph 79% 0.00 in 0 W/m2
04:00 39.2 °F 33.9 °F 29.77 in SW 7 mph 7 mph 81% 0.00 in 0 W/m2
04:05 39.3 °F 33.6 °F 29.76 in SSW 7 mph 7 mph 80% 0.00 in 0 W/m2
04:10 39.3 °F 33.6 °F 29.75 in SW 7 mph 7 mph 80% 0.00 in 0 W/m2
04:15 39.3 °F 33.6 °F 29.76 in WSW 7 mph 7 mph 80% 0.00 in 0 W/m2
04:20 39.3 °F 34 °F 29.76 in SSW 7 mph 8 mph 81% 0.00 in 0 W/m2
04:25 39.3 °F 34 °F 29.76 in SW 7 mph 8 mph 81% 0.00 in 0 W/m2
04:30 39.3 °F 34.3 °F 29.76 in South 7 mph 9 mph 82% 0.00 in 0 W/m2
04:35 39.2 °F 34.2 °F 29.75 in South 7 mph 9 mph 82% 0.00 in 0 W/m2
04:40 39.2 °F 34.2 °F 29.75 in SSW 7 mph 10 mph 82% 0.00 in 0 W/m2
04:45 38.9 °F 34.2 °F 29.76 in SSW 6 mph 10 mph 83% 0.00 in 0 W/m2
04:50 38.8 °F 34.1 °F 29.76 in SSW 6 mph 7 mph 83% 0.00 in 0 W/m2
04:55 38.8 °F 34.1 °F 29.75 in SSW 7 mph 7 mph 83% 0.00 in 0 W/m2
05:00 38.8 °F 34.4 °F 29.76 in SSW 7 mph 7 mph 84% 0.00 in 0 W/m2
05:05 38.8 °F 34.1 °F 29.76 in SSW 7 mph 8 mph 83% 0.00 in 0 W/m2
05:10 38.6 °F 33.9 °F 29.76 in SSW 7 mph 7 mph 83% 0.00 in 0 W/m2
05:15 38.7 °F 34 °F 29.75 in South 7 mph 7 mph 83% 0.00 in 0 W/m2
05:20 38.5 °F 33.8 °F 29.75 in SSW 7 mph 11 mph 83% 0.00 in 0 W/m2
05:25 38.4 °F 33.7 °F 29.75 in SSW 7 mph 11 mph 83% 0.00 in 0 W/m2
05:30 38.4 °F 33.7 °F 29.75 in SW 7 mph 7 mph 83% 0.00 in 0 W/m2
05:35 38.4 °F 33.4 °F 29.74 in ENE 6 mph 7 mph 82% 0.00 in 0 W/m2
05:40 38.3 °F 33.3 °F 29.74 in SE 5 mph 8 mph 82% 0.00 in 0 W/m2
05:45 38.3 °F 33.9 °F 29.74 in SSW 4 mph 8 mph 84% 0.00 in 0 W/m2
05:50 38.2 °F 33.5 °F 29.74 in ESE 4 mph 4 mph 83% 0.00 in 0 W/m2
05:55 38 °F 33.3 °F 29.74 in SSW 4 mph 4 mph 83% 0.00 in 0 W/m2
06:00 37.9 °F 33.5 °F 29.74 in SW 3 mph 9 mph 84% 0.00 in 0 W/m2
06:05 37.7 °F 33.6 °F 29.74 in SW 4 mph 9 mph 85% 0.00 in 0 W/m2
06:10 37.4 °F 33.3 °F 29.73 in NE 4 mph 4 mph 85% 0.00 in 0 W/m2
06:15 37.1 °F 33 °F 29.73 in NNE 4 mph 4 mph 85% 0.00 in 0 W/m2
06:20 36.8 °F 33 °F 29.73 in SSE 4 mph 4 mph 86% 0.00 in 0 W/m2
06:25 36.5 °F 33 °F 29.73 in NNE 3 mph 6 mph 87% 0.00 in 0 W/m2
06:30 36.3 °F 33.1 °F 29.73 in SE 3 mph 4 mph 88% 0.00 in 0 W/m2
06:35 36.1 °F 33.2 °F 29.72 in NE 3 mph 4 mph 89% 0.00 in 0 W/m2
06:40 36 °F 32.8 °F 29.73 in NW 3 mph 4 mph 88% 0.00 in 0 W/m2
06:45 36 °F 33.1 °F 29.73 in NNE 3 mph 4 mph 89% 0.00 in 0 W/m2
06:50 36 °F 33.1 °F 29.72 in ESE 3 mph 3 mph 89% 0.00 in 0 W/m2
06:55 35.9 °F 33 °F 29.72 in NW 3 mph 3 mph 89% 0.00 in 0 W/m2
07:00 35.7 °F 33.1 °F 29.72 in NE 3 mph 3 mph 90% 0.00 in 0 W/m2
07:05 35.6 °F 33 °F 29.72 in NNE 3 mph 3 mph 90% 0.00 in 0 W/m2
07:10 35.4 °F 32.8 °F 29.72 in NE 4 mph 4 mph 90% 0.00 in 0 W/m2
07:15 35.3 °F 32.7 °F 29.73 in WNW 3 mph 4 mph 90% 0.00 in 0 W/m2
07:20 35.3 °F 32.9 °F 29.73 in NE 3 mph 4 mph 91% 0.00 in 0 W/m2
07:25 35.2 °F 32.6 °F 29.72 in NNE 3 mph 4 mph 90% 0.00 in 0 W/m2
07:30 35 °F 32.4 °F 29.72 in North 3 mph 4 mph 90% 0.00 in 0 W/m2
07:35 35 °F 32.6 °F 29.72 in NNE 3 mph 4 mph 91% 0.00 in 0 W/m2
07:40 34.8 °F 32.4 °F 29.72 in North 3 mph 4 mph 91% 0.00 in 0 W/m2
07:45 34.6 °F 32.2 °F 29.72 in North 3 mph 4 mph 91% 0.00 in 0 W/m2
07:50 34.7 °F 32.3 °F 29.71 in North 3 mph 3 mph 91% 0.00 in 5 W/m2
07:55 34.8 °F 32.4 °F 29.71 in North 3 mph 4 mph 91% 0.00 in 5 W/m2
08:00 34.7 °F 32.3 °F 29.71 in NNE 3 mph 3 mph 91% 0.00 in 5 W/m2
08:05 34.8 °F 32.4 °F 29.71 in North 3 mph 3 mph 91% 0.00 in 7 W/m2
08:10 34.8 °F 32.4 °F 29.71 in NNW 3 mph 3 mph 91% 0.00 in 11 W/m2
08:15 34.6 °F 32.2 °F 29.71 in North 3 mph 3 mph 91% 0.00 in 11 W/m2
08:20 34.7 °F 32.3 °F 29.71 in North 3 mph 3 mph 91% 0.00 in 18 W/m2
08:25 34.7 °F 32.3 °F 29.71 in NW 3 mph 3 mph 91% 0.00 in 23 W/m2
08:30 34.6 °F 32.2 °F 29.71 in North 3 mph 3 mph 91% 0.00 in 21 W/m2
08:40 34.8 °F 32.4 °F 29.71 in North 3 mph 3 mph 91% 0.00 in 25 W/m2
08:45 34.8 °F 32.4 °F 29.71 in North 3 mph 4 mph 91% 0.00 in 26 W/m2
08:50 34.8 °F 32.7 °F 29.71 in NNE 3 mph 3 mph 92% 0.00 in 21 W/m2
08:55 34.8 °F 32.4 °F 29.70 in NNE 3 mph 3 mph 91% 0.00 in 16 W/m2
09:00 34.8 °F 32.4 °F 29.69 in North 3 mph 3 mph 91% 0.00 in 18 W/m2
09:05 34.7 °F 32.6 °F 29.70 in North 3 mph 3 mph 92% 0.00 in 21 W/m2
09:10 34.8 °F 32.4 °F 29.70 in North 3 mph 3 mph 91% 0.00 in 18 W/m2
09:15 34.8 °F 32.7 °F 29.69 in NNE 3 mph 3 mph 92% 0.00 in 18 W/m2
09:20 34.7 °F 32.6 °F 29.70 in NNE 3 mph 3 mph 92% 0.00 in 18 W/m2
09:25 34.6 °F 32.2 °F 29.70 in NNE 3 mph 3 mph 91% 0.00 in 19 W/m2
09:30 34.6 °F 32.2 °F 29.70 in NW 3 mph 4 mph 91% 0.00 in 18 W/m2
09:35 34.6 °F 32.5 °F 29.70 in NNE 3 mph 4 mph 92% 0.00 in 21 W/m2
09:40 34.6 °F 32.5 °F 29.70 in NE 3 mph 3 mph 92% 0.00 in 19 W/m2
09:45 34.6 °F 32.5 °F 29.70 in North 3 mph 3 mph 92% 0.00 in 21 W/m2
09:50 34.6 °F 32.5 °F 29.70 in ENE 3 mph 3 mph 92% 0.00 in 26 W/m2
09:55 34.6 °F 32.5 °F 29.70 in NE 3 mph 3 mph 92% 0.00 in 32 W/m2
10:00 34.6 °F 32.5 °F 29.70 in SE 3 mph 3 mph 92% 0.00 in 28 W/m2
10:05 34.4 °F 32.3 °F 29.69 in East 3 mph 3 mph 92% 0.00 in 28 W/m2
10:10 34.4 °F 32.3 °F 29.69 in NNE 3 mph 3 mph 92% 0.00 in 35 W/m2
10:15 34.4 °F 32.3 °F 29.69 in NE 3 mph 3 mph 92% 0.00 in 39 W/m2
10:20 34.6 °F 32.5 °F 29.69 in North 3 mph 3 mph 92% 0.00 in 47 W/m2
10:25 34.6 °F 32.5 °F 29.69 in North 3 mph 4 mph 92% 0.00 in 54 W/m2
10:30 34.6 °F 32.5 °F 29.69 in NNE 3 mph 4 mph 92% 0.00 in 62 W/m2
10:35 34.5 °F 32.4 °F 29.69 in NE 3 mph 4 mph 92% 0.00 in 62 W/m2
10:40 34.6 °F 32.5 °F 29.69 in NNW 3 mph 3 mph 92% 0.00 in 72 W/m2
10:45 34.6 °F 32.5 °F 29.69 in NNE 3 mph 4 mph 92% 0.00 in 79 W/m2
10:50 34.6 °F 32.5 °F 29.69 in North 3 mph 4 mph 92% 0.00 in 93 W/m2
10:55 34.6 °F 32.5 °F 29.69 in NNE 3 mph 4 mph 92% 0.00 in 81 W/m2
11:00 34.7 °F 32.6 °F 29.68 in NNE 3 mph 3 mph 92% 0.00 in 102 W/m2
11:05 34.8 °F 32.7 °F 29.68 in NE 3 mph 3 mph 92% 0.00 in 120 W/m2
11:10 34.8 °F 32.7 °F 29.68 in NNE 3 mph 3 mph 92% 0.00 in 128 W/m2
11:15 34.9 °F 32.8 °F 29.67 in North 3 mph 5 mph 92% 0.00 in 130 W/m2
11:20 34.9 °F 32.8 °F 29.67 in NNW 3 mph 3 mph 92% 0.00 in 113 W/m2
11:25 34.9 °F 32.8 °F 29.67 in NNW 3 mph 3 mph 92% 0.00 in 107 W/m2
11:30 34.8 °F 32.7 °F 29.66 in NNE 3 mph 3 mph 92% 0.00 in 105 W/m2
11:35 35 °F 32.9 °F 29.66 in NW 2 mph 3 mph 92% 0.00 in 93 W/m2
11:40 35.1 °F 33 °F 29.66 in North 2 mph 2 mph 92% 0.00 in 97 W/m2
11:45 35.2 °F 33.1 °F 29.66 in NE 2 mph 2 mph 92% 0.00 in 98 W/m2
11:50 35.2 °F 32.8 °F 29.65 in NNE 2 mph 4 mph 91% 0.00 in 84 W/m2
11:55 35.3 °F 33.2 °F 29.65 in NNE 3 mph 4 mph 92% 0.00 in 86 W/m2
12:00 35.2 °F 32.8 °F 29.65 in NNW 3 mph 3 mph 91% 0.00 in 79 W/m2
12:05 35.2 °F 32.8 °F 29.65 in North 3 mph 5 mph 91% 0.00 in 77 W/m2
12:10 35.4 °F 33 °F 29.65 in North 3 mph 3 mph 91% 0.00 in 76 W/m2
12:15 35.5 °F 33.1 °F 29.64 in NNW 3 mph 3 mph 91% 0.00 in 81 W/m2
12:20 35.5 °F 33.1 °F 29.64 in North 3 mph 4 mph 91% 0.00 in 91 W/m2
12:25 35.6 °F 33 °F 29.64 in NNW 3 mph 4 mph 90% 0.00 in 97 W/m2
12:30 35.7 °F 33.1 °F 29.64 in ENE 3 mph 3 mph 90% 0.00 in 100 W/m2
12:35 35.7 °F 33.1 °F 29.63 in North 3 mph 3 mph 90% 0.00 in 102 W/m2
12:40 35.8 °F 33.2 °F 29.63 in NNW 3 mph 4 mph 90% 0.00 in 97 W/m2
12:45 35.8 °F 32.9 °F 29.63 in NNE 3 mph 4 mph 89% 0.00 in 76 W/m2
12:50 35.9 °F 33 °F 29.63 in NNW 3 mph 3 mph 89% 0.00 in 62 W/m2
12:55 35.9 °F 33 °F 29.62 in North 2 mph 3 mph 89% 0.00 in 53 W/m2
13:00 35.9 °F 33 °F 29.62 in North 3 mph 4 mph 89% 0.00 in 69 W/m2
13:05 36 °F 33.1 °F 29.62 in NNW 3 mph 4 mph 89% 0.00 in 60 W/m2
13:10 35.9 °F 33 °F 29.62 in North 3 mph 3 mph 89% 0.00 in 62 W/m2
13:15 35.9 °F 32.7 °F 29.61 in North 3 mph 3 mph 88% 0.00 in 63 W/m2
13:20 36 °F 32.8 °F 29.61 in NNE 3 mph 3 mph 88% 0.00 in 83 W/m2
13:25 36.1 °F 32.9 °F 29.61 in NNE 3 mph 4 mph 88% 0.00 in 86 W/m2
13:30 36.1 °F 32.9 °F 29.61 in NNE 2 mph 2 mph 88% 0.00 in 81 W/m2
13:35 36.1 °F 32.9 °F 29.61 in NNE 2 mph 3 mph 88% 0.00 in 72 W/m2
13:40 36.2 °F 33 °F 29.61 in North 2 mph 3 mph 88% 0.00 in 69 W/m2
13:45 36.2 °F 33 °F 29.61 in NNW 2 mph 3 mph 88% 0.00 in 70 W/m2
13:50 36.2 °F 33 °F 29.60 in NE 2 mph 2 mph 88% 0.00 in 76 W/m2
13:55 36.3 °F 33.1 °F 29.60 in NE 2 mph 2 mph 88% 0.00 in 63 W/m2
14:00 36.3 °F 33.1 °F 29.60 in NNW 2 mph 2 mph 88% 0.00 in 72 W/m2
14:05 36.3 °F 33.1 °F 29.60 in NNE 2 mph 2 mph 88% 0.00 in 56 W/m2
14:10 36.2 °F 33 °F 29.60 in NE 2 mph 2 mph 88% 0.00 in 51 W/m2
14:15 36.3 °F 33.1 °F 29.60 in WSW 2 mph 2 mph 88% 0.00 in 60 W/m2
14:20 36.3 °F 32.8 °F 29.60 in North 2 mph 2 mph 87% 0.00 in 58 W/m2
14:25 36.3 °F 32.8 °F 29.60 in North 1 mph 2 mph 87% 0.00 in 58 W/m2
14:30 36.3 °F 32.8 °F 29.60 in North 1 mph 1 mph 87% 0.00 in 56 W/m2
14:35 36.2 °F 32.7 °F 29.60 in North 1 mph 1 mph 87% 0.00 in 46 W/m2
14:40 36.2 °F 32.7 °F 29.60 in North 1 mph 2 mph 87% 0.00 in 47 W/m2
14:45 36.4 °F 32.9 °F 29.60 in NNW 1 mph 2 mph 87% 0.00 in 42 W/m2
14:50 36.3 °F 32.8 °F 29.60 in North 1 mph 1 mph 87% 0.00 in 40 W/m2
14:55 36.4 °F 32.9 °F 29.60 in NE 1 mph 1 mph 87% 0.00 in 40 W/m2
15:00 36.4 °F 32.6 °F 29.60 in NNE 1 mph 2 mph 86% 0.00 in 39 W/m2
15:05 36.4 °F 32.6 °F 29.60 in ENE 1 mph 2 mph 86% 0.00 in 33 W/m2
15:10 36.4 °F 32.6 °F 29.60 in North 1 mph 1 mph 86% 0.00 in 30 W/m2
15:15 36.4 °F 32.6 °F 29.60 in North 1 mph 2 mph 86% 0.00 in 32 W/m2
15:20 36.4 °F 32.6 °F 29.60 in North 1 mph 1 mph 86% 0.00 in 30 W/m2
15:25 36.4 °F 32.6 °F 29.61 in NNE 1 mph 1 mph 86% 0.00 in 25 W/m2
15:30 36.4 °F 32.6 °F 29.61 in NW 1 mph 1 mph 86% 0.00 in 23 W/m2
15:35 36.5 °F 32.7 °F 29.61 in North 1 mph 1 mph 86% 0.00 in 25 W/m2
15:40 36.5 °F 32.7 °F 29.61 in NNE 1 mph 1 mph 86% 0.00 in 23 W/m2
15:45 36.4 °F 32.6 °F 29.61 in NE 1 mph 1 mph 86% 0.00 in 21 W/m2
15:50 36.5 °F 32.7 °F 29.61 in NNW 1 mph 1 mph 86% 0.00 in 19 W/m2
15:55 36.5 °F 32.4 °F 29.61 in NNE 1 mph 1 mph 85% 0.00 in 18 W/m2
16:00 36.5 °F 32.7 °F 29.61 in ENE 1 mph 1 mph 86% 0.00 in 16 W/m2
16:05 36.5 °F 32.4 °F 29.62 in North 1 mph 1 mph 85% 0.00 in 14 W/m2
16:10 36.6 °F 32.5 °F 29.62 in Calm   1 mph 85% 0.00 in 12 W/m2
16:15 36.6 °F 32.8 °F 29.62 in North 1 mph 1 mph 86% 0.00 in 9 W/m2
16:20 36.6 °F 32.5 °F 29.62 in NNE 1 mph 1 mph 85% 0.00 in 7 W/m2
16:25 36.6 °F 32.8 °F 29.62 in NNE 1 mph 1 mph 86% 0.00 in 7 W/m2
16:30 36.6 °F 32.8 °F 29.62 in WNW 1 mph 1 mph 86% 0.00 in 9 W/m2
16:35 36.6 °F 32.8 °F 29.62 in SSE 1 mph 1 mph 86% 0.00 in 7 W/m2
16:40 36.6 °F 32.8 °F 29.63 in NE 1 mph 2 mph 86% 0.00 in 7 W/m2
16:45 36.6 °F 32.8 °F 29.62 in NW 1 mph 2 mph 86% 0.00 in 5 W/m2
16:50 36.6 °F 32.8 °F 29.62 in NNW 1 mph 1 mph 86% 0.00 in 5 W/m2
16:55 36.6 °F 32.8 °F 29.63 in NE 1 mph 1 mph 86% 0.00 in 0 W/m2
17:00 36.6 °F 32.8 °F 29.63 in North 1 mph 1 mph 86% 0.00 in 0 W/m2
17:05 36.6 °F 32.8 °F 29.63 in Calm   1 mph 86% 0.00 in 0 W/m2
17:10 36.5 °F 32.7 °F 29.63 in North 1 mph 1 mph 86% 0.00 in 0 W/m2
17:15 36.6 °F 32.8 °F 29.63 in NNE 1 mph 1 mph 86% 0.00 in 0 W/m2
17:20 36.6 °F 32.8 °F 29.63 in Calm     86% 0.00 in 0 W/m2
17:25 36.6 °F 32.8 °F 29.64 in Calm     86% 0.00 in 0 W/m2
17:30 36.6 °F 32.8 °F 29.64 in Calm     86% 0.00 in 0 W/m2
17:35 36.6 °F 32.8 °F 29.64 in Calm     86% 0.00 in 0 W/m2
17:45 36.6 °F 32.8 °F 29.64 in West 1 mph 1 mph 86% 0.00 in 0 W/m2
17:50 36.6 °F 32.8 °F 29.64 in Calm   1 mph 86% 0.00 in 0 W/m2
18:00 36.6 °F 32.8 °F 29.64 in Calm   1 mph 86% 0.00 in 0 W/m2
18:05 36.6 °F 32.8 °F 29.64 in Calm   1 mph 86% 0.00 in 0 W/m2
18:10 36.6 °F 32.8 °F 29.64 in NNW 1 mph 1 mph 86% 0.00 in 0 W/m2
18:15 36.6 °F 32.8 °F 29.64 in NW 1 mph 1 mph 86% 0.00 in 0 W/m2
18:20 36.5 °F 32.7 °F 29.65 in WSW 1 mph 1 mph 86% 0.00 in 0 W/m2
Sand Point, Michigan, USA
Compliments of Weather Underground - 2 mb